| time (UTC) | temp F | wind direction | speed knots | gust knots | rain 1hr in | rain 24hr in | rain mn in | humidity % | barometer mb |
| 20260504151050 | 45 | 266 | 2.6 | 7.0 | 0.05 | 0.07 | 0.07 | 84 | 1006.7 |
| 20260504150547 | 45 | 263 | 0.9 | 7.0 | 0.04 | 0.06 | 0.06 | 85 | 1006.7 |
| 20260504141048 | 49 | 302 | 2.6 | 8.7 | 0.00 | 0.02 | 0.02 | 63 | 1005.9 |
| 20260504140548 | 49 | 290 | 2.6 | 8.7 | 0.00 | 0.02 | 0.02 | 63 | 1005.7 |
| 20260504130547 | 47 | 186 | 0.9 | 5.2 | 0.00 | 0.02 | 0.02 | 76 | 1005.4 |
| 20260504110550 | 42 | 208 | 0.9 | 4.3 | 0.00 | 0.02 | 0.02 | 87 | 1006.4 |
| 20260504100550 | 40 | 0 | 0.0 | 3.5 | 0.02 | 0.02 | 0.02 | 86 | 1006.4 |
| 20260504090112 | 40 | 223 | 0.9 | 2.6 | 0.00 | 0.00 | 0.00 | 73 | 1006.6 |
| 20260504081553 | 40 | 0 | 0.0 | 2.6 | 0.00 | 0.00 | 0.00 | 72 | 1006.7 |
| 20260504081048 | 40 | 222 | 0.0 | 2.6 | 0.00 | 0.00 | 0.00 | 72 | 1006.7 |
| 20260504080547 | 40 | 186 | 0.9 | 2.6 | 0.00 | 0.00 | 0.00 | 71 | 1006.7 |
| 20260504050548 | 41 | 0 | 0.0 | 1.7 | 0.00 | 0.00 | 0.00 | 49 | 1007.0 |
| 20260504045550 | 41 | 221 | 0.0 | 2.6 | 0.00 | 0.00 | 0.00 | 50 | 1007.1 |
| 20260504045048 | 41 | 229 | 0.9 | 2.6 | 0.00 | 0.00 | 0.00 | 49 | 1007.2 |
| 20260504044611 | 41 | 0 | 0.9 | 3.5 | 0.00 | 0.00 | 0.00 | 50 | 1007.2 |
| 20260504044048 | 40 | 209 | 0.9 | 5.2 | 0.00 | 0.00 | 0.00 | 50 | 1007.3 |
| 20260504043548 | 41 | 198 | 0.9 | 5.2 | 0.00 | 0.00 | 0.00 | 52 | 1007.3 |
| 20260504043101 | 41 | 224 | 0.0 | 1.7 | 0.00 | 0.00 | 0.00 | 48 | 1007.4 |
| 20260504042550 | 41 | 0 | 0.0 | 1.7 | 0.00 | 0.00 | 0.00 | 48 | 1007.4 |
| 20260504042048 | 42 | 0 | 0.9 | 1.7 | 0.00 | 0.00 | 0.00 | 47 | 1007.4 |
| 20260504041557 | 42 | 215 | 0.9 | 2.6 | 0.00 | 0.00 | 0.00 | 48 | 1007.4 |
| 20260504041048 | 41 | 234 | 0.9 | 2.6 | 0.00 | 0.00 | 0.00 | 48 | 1007.4 |
| 20260504040548 | 41 | 196 | 0.0 | 3.5 | 0.00 | 0.00 | 0.00 | 48 | 1007.4 |
| 20260504040120 | 41 | 184 | 0.0 | 5.2 | 0.00 | 0.00 | 0.00 | 48 | 1007.3 |
| 20260504035552 | 41 | 241 | 0.9 | 5.2 | 0.00 | 0.00 | 0.00 | 50 | 1007.4 |
| 20260504035049 | 41 | 227 | 0.9 | 4.3 | 0.00 | 0.00 | 0.00 | 49 | 1007.3 |
| 20260504034607 | 41 | 285 | 1.7 | 3.5 | 0.00 | 0.00 | 0.00 | 50 | 1007.3 |
| 20260504034049 | 40 | 231 | 1.7 | 3.5 | 0.00 | 0.00 | 0.00 | 52 | 1007.3 |
| 20260504033548 | 39 | 251 | 0.9 | 2.6 | 0.00 | 0.00 | 0.00 | 55 | 1007.4 |
| 20260504033055 | 39 | 0 | 0.0 | 1.7 | 0.00 | 0.00 | 0.00 | 53 | 1007.3 |
| 20260504032548 | 39 | 0 | 0.0 | 6.1 | 0.00 | 0.00 | 0.00 | 54 | 1007.4 |
| 20260504032048 | 39 | 248 | 0.9 | 6.1 | 0.00 | 0.00 | 0.00 | 54 | 1007.3 |
| 20260504031550 | 39 | 246 | 1.7 | 3.5 | 0.00 | 0.00 | 0.00 | 56 | 1007.4 |
| 20260504031047 | 38 | 248 | 0.9 | 2.6 | 0.00 | 0.00 | 0.00 | 59 | 1007.3 |
| 20260504030548 | 39 | 253 | 0.9 | 5.2 | 0.00 | 0.00 | 0.00 | 56 | 1007.4 |
| 20260504030052 | 40 | 254 | 1.7 | 5.2 | 0.00 | 0.00 | 0.00 | 54 | 1007.4 |
| 20260504025552 | 40 | 272 | 1.7 | 5.2 | 0.00 | 0.00 | 0.00 | 53 | 1007.5 |
| 20260504025049 | 40 | 273 | 0.9 | 3.5 | 0.00 | 0.00 | 0.00 | 54 | 1007.4 |
| 20260504024550 | 40 | 247 | 0.9 | 3.5 | 0.00 | 0.00 | 0.00 | 53 | 1007.5 |
| 20260504024047 | 40 | 267 | 0.9 | 5.2 | 0.00 | 0.00 | 0.00 | 53 | 1007.5 |
| 20260504023549 | 40 | 265 | 1.7 | 5.2 | 0.00 | 0.00 | 0.00 | 53 | 1007.5 |
| 20260504023051 | 40 | 287 | 1.7 | 3.5 | 0.00 | 0.00 | 0.00 | 53 | 1007.4 |
| 20260504022547 | 40 | 257 | 0.9 | 3.5 | 0.00 | 0.00 | 0.00 | 53 | 1007.5 |
| 20260504022047 | 40 | 0 | 0.0 | 1.7 | 0.00 | 0.00 | 0.00 | 54 | 1007.6 |
| 20260504021550 | 40 | 0 | 0.0 | 1.7 | 0.00 | 0.00 | 0.00 | 53 | 1007.5 |
| 20260504021048 | 41 | 0 | 0.0 | 1.7 | 0.00 | 0.00 | 0.00 | 53 | 1007.6 |
| 20260504020551 | 41 | 242 | 0.9 | 1.7 | 0.00 | 0.00 | 0.00 | 53 | 1007.6 |
| 20260504020050 | 40 | 202 | 0.9 | 2.6 | 0.00 | 0.00 | 0.00 | 54 | 1007.6 |
| 20260504015548 | 40 | 267 | 0.9 | 3.5 | 0.00 | 0.00 | 0.00 | 53 | 1007.7 |
| 20260504015048 | 40 | 268 | 0.9 | 3.5 | 0.00 | 0.00 | 0.00 | 54 | 1007.7 |
| 20260504014549 | 40 | 219 | 0.9 | 3.5 | 0.00 | 0.00 | 0.00 | 54 | 1007.7 |
| 20260504014048 | 40 | 213 | 0.0 | 1.7 | 0.00 | 0.00 | 0.00 | 55 | 1007.6 |
| 20260504013547 | 40 | 0 | 0.0 | 1.7 | 0.00 | 0.00 | 0.00 | 55 | 1007.6 |
| 20260504013103 | 40 | 0 | 0.9 | 1.7 | 0.00 | 0.00 | 0.00 | 54 | 1007.6 |
| 20260504012547 | 40 | 217 | 0.0 | 1.7 | 0.00 | 0.00 | 0.00 | 54 | 1007.6 |
| 20260504012047 | 40 | 0 | 0.0 | 1.7 | 0.00 | 0.00 | 0.00 | 54 | 1007.6 |
| 20260504011551 | 40 | 256 | 0.0 | 1.7 | 0.00 | 0.00 | 0.00 | 53 | 1007.5 |
| 20260504011047 | 41 | 0 | 0.0 | 1.7 | 0.00 | 0.00 | 0.00 | 53 | 1007.5 |
| 20260504010547 | 41 | 0 | 0.9 | 1.7 | 0.00 | 0.00 | 0.00 | 52 | 1007.4 |
| 20260504010058 | 41 | 0 | 0.0 | 1.7 | 0.00 | 0.00 | 0.00 | 52 | 1007.4 |
| 20260504005547 | 41 | 0 | 0.0 | 1.7 | 0.00 | 0.00 | 0.00 | 52 | 1007.3 |
| 20260504005047 | 41 | 212 | 0.0 | 1.7 | 0.00 | 0.00 | 0.00 | 52 | 1007.3 |
| 20260504004606 | 41 | 212 | 0.0 | 2.6 | 0.00 | 0.00 | 0.00 | 52 | 1007.2 |
| 20260504004049 | 41 | 0 | 0.0 | 2.6 | 0.00 | 0.00 | 0.00 | 51 | 1007.2 |
| 20260504003548 | 41 | 230 | 0.9 | 2.6 | 0.00 | 0.00 | 0.00 | 52 | 1007.2 |
| 20260504003051 | 41 | 205 | 0.9 | 2.6 | 0.00 | 0.00 | 0.00 | 51 | 1007.2 |
| 20260504002547 | 41 | 205 | 1.7 | 2.6 | 0.00 | 0.00 | 0.00 | 51 | 1007.1 |
| 20260504002048 | 41 | 0 | 0.0 | 1.7 | 0.00 | 0.00 | 0.00 | 53 | 1007.1 |
| 20260504001552 | 42 | 0 | 0.0 | 1.7 | 0.00 | 0.00 | 0.00 | 51 | 1007.0 |
| 20260504001049 | 42 | 282 | 0.0 | 1.7 | 0.00 | 0.00 | 0.00 | 50 | 1007.1 |
| 20260504000546 | 42 | 0 | 0.0 | 1.7 | 0.00 | 0.00 | 0.00 | 50 | 1007.1 |
| 20260504000056 | 43 | 0 | 0.0 | 1.7 | 0.00 | 0.00 | 0.00 | 49 | 1007.1 |
| 20260503235546 | 43 | 0 | 0.0 | 6.1 | 0.00 | 0.04 | 0.00 | 48 | 1007.0 |
| 20260503235047 | 43 | 318 | 0.9 | 7.0 | 0.00 | 0.04 | 0.00 | 48 | 1007.0 |
| 20260503234557 | 43 | 259 | 0.9 | 7.0 | 0.00 | 0.04 | 0.00 | 48 | 1007.1 |
| 20260503234048 | 43 | 15 | 1.7 | 7.0 | 0.00 | 0.04 | 0.00 | 47 | 1007.0 |
| 20260503233548 | 43 | 267 | 0.0 | 6.1 | 0.00 | 0.04 | 0.00 | 50 | 1007.0 |
| 20260503233055 | 44 | 0 | 1.7 | 7.8 | 0.00 | 0.04 | 0.00 | 48 | 1007.0 |
| 20260503232548 | 44 | 214 | 1.7 | 7.8 | 0.00 | 0.04 | 0.00 | 47 | 1006.9 |
| 20260503232048 | 44 | 0 | 0.0 | 9.6 | 0.00 | 0.04 | 0.00 | 47 | 1007.0 |
| 20260503231549 | 45 | 259 | 1.7 | 9.6 | 0.00 | 0.04 | 0.00 | 46 | 1006.9 |
| 20260503231048 | 44 | 257 | 1.7 | 6.1 | 0.00 | 0.04 | 0.00 | 46 | 1006.9 |
| 20260503230551 | 45 | 246 | 0.0 | 10.4 | 0.00 | 0.04 | 0.00 | 46 | 1007.0 |
| 20260503230058 | 45 | 350 | 3.5 | 10.4 | 0.00 | 0.04 | 0.00 | 45 | 1006.9 |
| 20260503225546 | 45 | 286 | 3.5 | 9.6 | 0.00 | 0.04 | 0.00 | 46 | 1006.9 |
| 20260503225048 | 45 | 250 | 1.7 | 6.1 | 0.00 | 0.04 | 0.00 | 46 | 1006.8 |
| 20260503224553 | 45 | 265 | 0.9 | 6.1 | 0.00 | 0.04 | 0.00 | 47 | 1007.0 |
| 20260503224048 | 45 | 0 | 0.9 | 6.1 | 0.00 | 0.04 | 0.00 | 46 | 1006.8 |
| 20260503223548 | 45 | 28 | 0.0 | 5.2 | 0.00 | 0.04 | 0.00 | 45 | 1006.8 |
| 20260503223058 | 45 | 327 | 0.9 | 7.8 | 0.00 | 0.04 | 0.00 | 44 | 1006.9 |
| 20260503222548 | 45 | 0 | 0.9 | 7.8 | 0.00 | 0.04 | 0.00 | 46 | 1006.9 |
| 20260503222048 | 45 | 94 | 1.7 | 6.1 | 0.00 | 0.04 | 0.00 | 45 | 1006.9 |
| 20260503221608 | 45 | 9 | 1.7 | 5.2 | 0.00 | 0.04 | 0.00 | 46 | 1007.0 |
| 20260503221048 | 45 | 0 | 0.9 | 5.2 | 0.00 | 0.04 | 0.00 | 47 | 1007.0 |
| 20260503220548 | 45 | 17 | 0.9 | 5.2 | 0.00 | 0.04 | 0.00 | 46 | 1007.0 |
| 20260503220109 | 45 | 24 | 1.7 | 6.1 | 0.00 | 0.04 | 0.00 | 45 | 1007.0 |
| 20260503215548 | 45 | 203 | 2.6 | 6.1 | 0.00 | 0.04 | 0.00 | 44 | 1006.9 |
| 20260503215048 | 45 | 221 | 0.9 | 7.8 | 0.00 | 0.04 | 0.00 | 46 | 1006.8 |
| 20260503214556 | 45 | 269 | 0.0 | 13.0 | 0.00 | 0.04 | 0.00 | 45 | 1006.9 |
| 20260503214049 | 45 | 294 | 2.6 | 13.0 | 0.00 | 0.04 | 0.00 | 45 | 1007.0 |
| 20260503213547 | 45 | 350 | 5.2 | 13.0 | 0.00 | 0.04 | 0.00 | 44 | 1006.9 |
| 20260503213054 | 46 | 294 | 4.3 | 9.6 | 0.00 | 0.04 | 0.00 | 45 | 1006.9 |
| 20260503212548 | 46 | 208 | 0.0 | 4.3 | 0.00 | 0.04 | 0.00 | 47 | 1006.9 |
| 20260503212047 | 45 | 204 | 0.9 | 8.7 | 0.00 | 0.04 | 0.00 | 47 | 1006.9 |
| 20260503211556 | 45 | 206 | 1.7 | 8.7 | 0.00 | 0.04 | 0.00 | 46 | 1006.8 |
| 20260503211047 | 46 | 257 | 2.6 | 9.6 | 0.00 | 0.04 | 0.00 | 46 | 1006.9 |
| 20260503210547 | 46 | 231 | 2.6 | 9.6 | 0.00 | 0.04 | 0.00 | 45 | 1006.8 |
| 20260503210052 | 47 | 248 | 2.6 | 7.8 | 0.00 | 0.04 | 0.00 | 45 | 1006.9 |
| 20260503205547 | 46 | 205 | 3.5 | 7.8 | 0.00 | 0.04 | 0.00 | 46 | 1006.8 |
| 20260503205049 | 45 | 0 | 1.7 | 7.0 | 0.00 | 0.04 | 0.00 | 48 | 1006.8 |
| 20260503204558 | 45 | 215 | 1.7 | 7.0 | 0.00 | 0.04 | 0.00 | 50 | 1006.8 |
| 20260503204048 | 44 | 255 | 2.6 | 10.4 | 0.00 | 0.04 | 0.00 | 50 | 1006.9 |
| 20260503203548 | 44 | 323 | 1.7 | 10.4 | 0.00 | 0.04 | 0.00 | 49 | 1006.8 |
| 20260503203056 | 44 | 234 | 2.6 | 12.2 | 0.00 | 0.04 | 0.00 | 51 | 1006.7 |
| 20260503202548 | 44 | 238 | 0.0 | 12.2 | 0.00 | 0.04 | 0.00 | 54 | 1006.9 |
| 20260503202048 | 43 | 269 | 2.6 | 10.4 | 0.00 | 0.04 | 0.00 | 53 | 1006.9 |
| 20260503201553 | 43 | 109 | 5.2 | 10.4 | 0.00 | 0.04 | 0.00 | 51 | 1006.9 |
| 20260503201047 | 44 | 238 | 2.6 | 13.9 | 0.00 | 0.04 | 0.00 | 50 | 1006.9 |
| 20260503200547 | 44 | 273 | 3.5 | 13.9 | 0.00 | 0.04 | 0.00 | 50 | 1006.9 |
| 20260503200056 | 44 | 289 | 2.6 | 10.4 | 0.00 | 0.04 | 0.00 | 50 | 1006.9 |
| 20260503195548 | 44 | 317 | 2.6 | 10.4 | 0.00 | 0.04 | 0.00 | 50 | 1006.8 |
| 20260503195046 | 44 | 234 | 2.6 | 9.6 | 0.00 | 0.04 | 0.00 | 50 | 1006.9 |
| 20260503194551 | 44 | 251 | 3.5 | 10.4 | 0.00 | 0.04 | 0.00 | 51 | 1007.1 |
| 20260503194048 | 44 | 286 | 4.3 | 10.4 | 0.00 | 0.04 | 0.00 | 50 | 1007.1 |
| 20260503193549 | 44 | 238 | 4.3 | 11.3 | 0.00 | 0.04 | 0.00 | 50 | 1007.1 |
| 20260503193054 | 45 | 227 | 4.3 | 11.3 | 0.00 | 0.04 | 0.00 | 48 | 1007.1 |
| 20260503192548 | 44 | 319 | 2.6 | 11.3 | 0.00 | 0.04 | 0.00 | 47 | 1007.1 |
| 20260503192048 | 45 | 294 | 0.9 | 9.6 | 0.00 | 0.04 | 0.00 | 48 | 1007.1 |
| 20260503191553 | 44 | 241 | 3.5 | 11.3 | 0.00 | 0.04 | 0.00 | 46 | 1007.2 |
| 20260503191047 | 44 | 290 | 2.6 | 11.3 | 0.00 | 0.04 | 0.00 | 47 | 1007.2 |
| 20260503190551 | 45 | 348 | 1.7 | 7.0 | 0.00 | 0.04 | 0.00 | 49 | 1007.2 |
| 20260503190052 | 45 | 45 | 0.9 | 11.3 | 0.00 | 0.04 | 0.00 | 46 | 1007.2 |
| 20260503185550 | 45 | 17 | 2.6 | 11.3 | 0.00 | 0.04 | 0.00 | 47 | 1007.1 |
| 20260503185050 | 45 | 0 | 1.7 | 7.8 | 0.00 | 0.04 | 0.00 | 48 | 1007.1 |
| 20260503184559 | 44 | 289 | 2.6 | 8.7 | 0.00 | 0.04 | 0.00 | 48 | 1007.2 |
| 20260503184048 | 44 | 45 | 1.7 | 13.0 | 0.00 | 0.04 | 0.00 | 47 | 1007.3 |
| 20260503183548 | 44 | 19 | 2.6 | 13.0 | 0.00 | 0.04 | 0.00 | 48 | 1007.3 |
| 20260503183055 | 45 | 254 | 1.7 | 13.9 | 0.00 | 0.04 | 0.00 | 48 | 1007.2 |
| 20260503182552 | 45 | 321 | 1.7 | 13.9 | 0.00 | 0.04 | 0.00 | 47 | 1007.2 |
| 20260503182048 | 44 | 350 | 4.3 | 18.2 | 0.00 | 0.04 | 0.00 | 47 | 1007.3 |
| 20260503181553 | 44 | 321 | 5.2 | 18.2 | 0.00 | 0.04 | 0.00 | 49 | 1007.3 |
| 20260503181047 | 44 | 294 | 8.7 | 18.2 | 0.00 | 0.04 | 0.00 | 47 | 1007.2 |
| 20260503180547 | 45 | 298 | 5.2 | 10.4 | 0.00 | 0.04 | 0.00 | 45 | 1007.2 |
| 20260503180109 | 45 | 306 | 3.5 | 8.7 | 0.00 | 0.04 | 0.00 | 44 | 1007.2 |
| 20260503175550 | 46 | 28 | 0.9 | 7.0 | 0.00 | 0.04 | 0.00 | 45 | 1007.2 |
| 20260503175106 | 45 | 256 | 1.7 | 7.8 | 0.00 | 0.04 | 0.00 | 47 | 1007.2 |
| 20260503174553 | 44 | 209 | 0.9 | 7.8 | 0.00 | 0.04 | 0.00 | 49 | 1007.2 |
| 20260503174050 | 44 | 288 | 3.5 | 7.8 | 0.00 | 0.04 | 0.00 | 50 | 1007.3 |
| 20260503173548 | 44 | 14 | 1.7 | 12.2 | 0.00 | 0.04 | 0.00 | 50 | 1007.2 |
| 20260503173056 | 43 | 31 | 2.6 | 12.2 | 0.00 | 0.04 | 0.00 | 50 | 1007.2 |
| 20260503172546 | 44 | 250 | 5.2 | 10.4 | 0.00 | 0.04 | 0.00 | 50 | 1007.2 |
| 20260503172048 | 44 | 33 | 2.6 | 9.6 | 0.00 | 0.04 | 0.00 | 50 | 1007.2 |
| 20260503171550 | 44 | 286 | 1.7 | 10.4 | 0.00 | 0.04 | 0.00 | 49 | 1007.2 |
| 20260503171048 | 44 | 346 | 1.7 | 12.2 | 0.00 | 0.04 | 0.00 | 46 | 1007.3 |
| 20260503170548 | 45 | 293 | 1.7 | 12.2 | 0.00 | 0.04 | 0.00 | 48 | 1007.3 |
| 20260503160107 | 44 | 77 | 2.6 | 7.0 | 0.00 | 0.04 | 0.00 | 52 | 1007.6 |